Wind_Speed
25 29 30 31 31 31 28 27 28 29 29 26 27 30 32 30 27 27 25 21 18 16 14 16 16 29 33 49 54 47 44 43 40 37 35 36 35 34 31 31 30 31 28
27 30 32 29 30 30 26 25 27 28 29 27 25 31 31 32 29 27 27 24 22 25 21 19 14 28 34 37 48 50 46 44 42 38 36 37 36 35 33 32 31 30 30
30 33 31 31 30 29 28 27 26 27 27 27 28 29 29 30 29 25 27 21 24 25 26 26 23 20 37 40 53 53 49 46 43 40 38 38 37 36 34 33 32 31 30
33 30 32 31 30 28 29 28 26 26 26 27 27 28 28 29 29 24 27 21 22 24 25 25 31 22 23 57 53 55 51 46 45 41 39 38 38 39 35 35 33 32 31
31 29 32 30 29 30 29 28 25 24 24 25 28 29 28 29 30 25 24 20 19 22 24 23 26 26 24 31 56 56 52 48 45 43 40 39 41 40 36 35 33 33 32
28 31 29 27 30 30 26 27 26 27 24 25 29 27 29 27 21 12 18 13 16 19 22 22 20 28 25 44 44 56 52 50 46 45 42 40 42 41 38 36 36 34 32
27 32 28 28 30 28 25 26 26 24 25 26 25 30 24 19 9 31 7 8 8 14 21 21 19 24 28 35 30 55 53 52 48 45 43 41 43 42 39 37 37 34 33
29 28 27 29 30 25 27 29 27 24 22 24 18 19 8 13 20 19 17 13 13 11 19 20 19 23 30 42 31 37 55 54 51 47 44 41 41 43 40 39 37 36 34
27 24 27 28 28 26 26 27 27 25 21 23 21 9 5 5 11 9 19 14 16 11 15 20 20 27 35 42 34 33 60 56 52 48 46 42 41 41 43 41 37 36 34
29 24 27 28 24 27 27 26 27 25 24 21 24 20 20 18 3 6 13 15 18 10 10 20 20 24 37 44 42 37 60 58 54 50 47 44 41 41 42 43 38 37 35
28 26 27 28 24 27 26 25 26 27 23 20 21 23 20 18 16 5 6 6 21 6 7 18 27 24 38 41 25 28 60 59 55 52 48 45 43 41 41 42 39 37 36
25 26 27 27 25 26 27 26 25 25 25 24 24 23 20 12 12 8 4 9 7 8 2 18 22 29 37 41 29 22 59 60 56 53 50 46 44 42 40 40 41 37 36
26 27 27 27 26 27 28 26 26 27 28 26 26 24 23 22 21 18 11 6 3 5 8 16 21 30 33 30 21 23 62 59 57 55 51 48 45 42 39 38 39 39 35
26 28 27 26 26 29 30 29 25 29 29 28 28 28 25 24 25 22 12 8 3 2 12 8 22 29 33 24 16 26 61 59 58 55 52 48 46 43 40 37 37 38 36
27 30 26 25 26 28 29 29 28 30 30 29 28 30 27 26 27 24 19 15 5 3 7 11 7 23 33 24 15 11 45 59 57 55 52 49 46 43 41 37 36 35 35
25 31 24 26 27 28 29 28 28 29 29 30 28 31 32 31 29 24 19 17 12 3 3 4 9 14 27 19 14 16 30 57 54 54 51 49 47 44 41 38 36 34 33
20 29 24 25 28 29 30 28 28 29 30 30 33 32 33 34 29 28 23 19 15 12 2 5 8 15 21 16 13 22 27 37 57 51 50 49 47 45 42 40 37 34 32
19 27 24 26 27 29 30 28 29 31 31 30 32 33 34 34 31 28 27 23 22 20 4 2 13 19 14 4 5 26 33 37 46 51 50 48 46 45 42 40 38 35 32
21 27 25 25 29 30 28 27 27 29 32 31 32 32 34 35 35 31 30 27 26 23 21 13 11 18 16 10 11 30 36 37 46 52 47 47 44 44 43 40 38 36 33
25 28 27 25 29 29 29 27 28 29 32 33 34 34 36 35 35 33 31 30 27 25 24 21 15 14 17 13 19 21 30 37 37 51 48 46 44 43 42 41 39 37 34
24 28 29 29 30 31 31 30 32 30 32 33 38 38 36 34 33 36 34 35 33 27 25 20 20 16 18 13 10 11 26 33 27 31 40 42 46 44 41 40 39 37 36
23 27 29 30 33 31 28 27 30 32 33 34 36 37 38 39 36 37 40 44 42 32 31 25 22 16 18 12 13 15 21 26 6 21 24 23 39 38 43 42 40 38 36
21 26 27 28 30 32 29 27 30 34 33 34 35 38 36 40 37 35 36 40 44 46 39 29 24 26 13 17 18 23 18 18 10 12 21 16 27 28 37 40 39 38 37
22 25 27 26 29 31 31 29 29 32 32 34 34 38 37 39 39 35 35 37 38 42 42 38 35 32 32 21 25 25 26 24 23 17 12 5 19 19 29 34 37 37 37
21 24 23 24 27 30 31 31 31 32 32 33 32 38 40 39 40 37 38 34 37 40 39 37 40 46 51 37 27 27 25 14 10 13 10 6 9 15 19 16 28 33 36
19 22 25 24 25 27 28 29 30 31 31 30 32 34 40 40 40 41 40 34 37 34 36 41 47 51 51 53 48 41 32 23 10 8 17 7 4 7 8 12 10 19 24
Wind_Direction
11 4 0 357 353 352 351 346 340 336 328 321 323 314 310 307 304 301 295 294 290 287 300 300 296 212 214 214 179 186 182 181 179 176 172 168 163 158 159 160 156 154 151
10 3 359 358 358 355 351 345 340 330 327 320 312 316 308 302 299 296 292 290 280 270 274 278 276 227 223 203 181 185 183 181 181 177 174 171 167 161 161 161 158 156 153
7 3 2 0 356 354 353 347 337 331 327 321 314 312 307 302 299 294 290 283 279 265 260 263 262 254 234 235 182 185 182 181 181 178 175 173 167 163 162 163 160 158 156
5 5 2 0 355 355 353 344 332 330 326 322 318 313 308 302 298 292 286 280 276 266 258 251 252 266 219 217 188 185 180 181 182 179 176 174 169 163 164 163 163 160 159
6 4 1 357 356 354 348 340 334 330 325 324 322 316 312 302 297 294 288 277 271 259 251 246 252 248 211 226 181 182 180 181 180 181 176 174 169 166 165 163 164 163 162
7 3 2 357 358 351 343 340 336 332 328 324 324 319 315 310 307 336 306 295 279 263 246 239 239 240 209 219 179 182 179 181 179 181 178 174 171 168 165 164 166 166 166
7 3 2 0 360 349 341 342 338 330 334 335 331 330 326 321 290 332 344 320 311 269 242 228 229 231 208 210 228 180 179 180 178 179 179 174 173 171 168 166 167 168 169
6 4 5 2 360 350 348 345 340 335 333 337 338 327 335 336 328 328 325 313 301 273 234 223 226 202 204 200 218 192 181 180 179 178 179 175 174 173 172 169 168 170 171
3 6 5 5 1 354 347 342 341 342 333 341 347 336 334 336 319 309 324 313 308 269 219 220 217 192 199 195 219 213 186 179 179 177 179 178 175 174 175 174 169 172 174
4 8 6 6 357 355 351 348 350 346 349 341 347 343 333 314 320 325 320 309 312 261 223 212 209 194 191 197 208 205 185 179 178 178 180 179 177 175 176 177 173 173 175
6 8 9 7 358 2 359 348 352 350 348 346 338 338 334 327 311 292 293 316 321 258 229 199 193 198 183 188 214 231 183 180 178 179 181 179 178 176 176 178 176 174 176
11 10 9 7 4 9 6 353 351 350 349 347 344 339 335 321 322 314 290 314 290 292 72 170 184 163 175 189 219 244 184 179 180 181 182 180 178 177 177 177 177 176 176
13 9 10 5 12 11 12 358 356 358 354 346 343 345 339 327 323 310 295 323 289 304 20 85 154 157 162 180 176 212 183 181 181 182 181 180 179 178 177 177 178 179 179
23 17 14 16 16 14 15 4 2 0 356 352 348 349 341 337 338 330 314 324 302 332 47 17 88 141 159 183 203 174 181 183 184 183 181 180 180 179 179 178 179 180 181
21 20 21 25 20 15 16 12 4 360 1 357 355 352 344 344 346 349 351 352 326 3 40 15 57 107 153 175 177 137 181 185 186 183 183 181 181 181 181 180 180 181 184
19 18 22 27 24 21 17 10 4 8 5 2 357 354 351 351 353 358 359 5 12 10 54 15 60 94 129 140 178 200 171 182 187 185 185 183 183 183 183 182 182 182 184
16 16 21 27 28 23 16 10 11 11 5 4 3 358 357 359 359 360 8 15 22 27 8 16 36 96 94 119 159 201 193 180 185 191 186 186 185 185 185 185 184 184 186
22 17 22 29 28 25 20 17 14 13 6 6 4 2 2 4 7 11 12 15 20 20 4 24 39 71 86 84 209 209 202 199 189 192 189 189 188 188 188 188 189 188 189
29 20 25 29 28 24 22 19 17 13 10 12 10 7 7 8 10 13 17 20 24 24 33 57 52 71 85 72 89 148 161 168 181 190 195 192 192 192 191 192 193 193 194
33 27 32 33 30 24 24 20 18 17 14 16 17 17 15 16 15 18 23 26 27 30 34 46 48 49 72 58 64 125 134 150 165 186 195 195 194 197 196 196 197 199 198
34 30 35 40 36 28 26 25 30 21 20 18 21 22 19 25 29 31 33 32 34 35 40 42 44 47 37 25 13 54 109 121 139 173 183 191 194 196 200 202 202 204 205
36 32 37 43 37 29 27 28 33 28 25 23 21 20 22 26 32 40 46 49 46 39 41 42 39 46 34 24 33 50 99 132 128 150 172 177 196 198 201 204 207 208 210
37 36 40 44 41 30 29 34 37 37 32 28 26 23 23 26 32 37 43 48 49 50 48 47 44 37 32 45 70 68 96 97 95 103 146 167 192 195 209 210 211 211 214
41 36 40 44 46 33 33 36 43 40 37 35 34 29 28 28 30 36 41 43 44 45 43 46 50 49 55 71 77 87 90 99 95 105 134 114 181 189 209 217 215 217 218
47 39 40 45 45 40 28 34 45 39 34 35 36 35 33 33 34 40 43 39 42 41 44 47 49 53 67 74 82 95 63 75 70 53 56 101 121 129 178 201 227 226 227
54 48 51 52 51 44 33 30 41 44 37 32 35 35 35 36 39 42 43 38 40 29 35 40 45 51 55 59 64 67 59 53 58 43 29 79 105 130 100 80 162 209 227
Height
823 820 815 810 805 800 795 790 785 780 775 771 766 761 756 752 750 747 744 744 743 741 740 736 732 734 746 751 750 770 779 786 791 797 802 807 813 819 825 828 832 835 841
823 818 813 809 803 799 794 789 784 778 772 767 763 756 751 746 744 741 738 738 737 735 735 733 733 728 725 743 750 766 776 783 790 795 801 807 813 819 825 829 833 836 841
822 817 812 808 803 798 792 788 782 777 770 764 759 752 746 741 737 735 732 732 729 727 728 726 728 730 726 723 746 761 770 779 786 793 800 806 813 818 825 829 833 837 842
821 817 812 807 802 796 791 785 780 773 767 761 755 748 741 736 731 730 726 726 722 720 719 719 719 726 731 724 746 754 764 774 783 790 798 805 812 817 825 829 834 838 843
821 817 812 807 801 795 789 784 778 772 766 760 752 744 737 730 725 722 719 719 714 713 711 712 711 721 731 726 738 749 759 771 781 789 796 803 811 816 824 829 835 839 844
822 818 812 807 801 794 788 783 777 771 765 758 750 740 732 724 720 718 714 712 708 707 706 707 708 713 718 718 730 747 756 768 779 788 795 802 809 815 822 828 835 840 845
823 818 812 806 800 794 789 783 777 769 762 757 747 736 727 720 717 714 711 709 704 702 701 706 708 707 712 713 730 743 752 766 776 786 794 800 807 814 821 827 835 841 846
823 818 812 806 801 795 788 782 776 769 763 757 751 741 728 718 716 709 708 705 701 699 698 703 708 707 706 718 712 741 750 763 773 783 792 799 805 812 820 827 834 841 846
824 818 813 807 801 795 789 783 776 770 762 757 753 749 738 732 722 708 705 703 698 695 695 698 703 706 709 718 729 734 746 758 770 780 790 797 804 811 819 827 834 841 846
825 818 813 807 801 796 789 784 777 771 766 758 752 749 746 740 729 716 703 700 695 691 691 694 696 700 706 711 723 731 742 754 766 778 787 795 802 809 817 826 833 840 846
825 819 813 808 802 795 789 784 777 772 767 760 754 747 742 735 730 724 709 701 693 688 687 691 692 694 701 709 716 730 738 750 763 774 784 791 801 808 816 824 832 838 845
825 819 814 808 802 796 790 784 779 773 767 761 755 747 742 737 728 722 712 703 695 685 683 688 691 694 701 709 720 723 737 746 760 771 780 789 799 806 815 823 830 837 843
826 820 815 809 803 797 791 785 780 773 767 760 754 748 741 734 728 721 712 705 697 686 682 683 689 694 701 708 724 723 733 744 756 768 778 788 797 805 814 821 828 836 842
830 823 817 810 804 798 792 787 781 775 768 761 754 747 740 731 725 718 711 708 698 688 684 685 684 691 698 709 721 723 732 742 755 766 775 786 795 804 812 819 827 834 841
832 825 819 812 806 800 795 789 783 777 770 762 755 747 739 730 724 716 712 708 702 694 691 690 691 695 702 714 721 726 734 744 752 764 773 783 793 802 810 818 825 832 839
834 828 821 815 809 803 797 791 785 779 773 765 757 749 738 730 722 717 712 706 703 703 698 701 704 704 707 712 719 730 736 745 753 763 771 781 791 800 809 816 824 831 837
836 830 824 818 812 806 800 794 789 782 775 768 759 751 743 733 725 717 711 709 706 705 704 702 702 701 706 713 724 730 737 744 753 761 770 780 789 799 807 815 823 829 836
839 834 826 821 815 809 804 798 792 786 779 771 763 754 747 738 731 722 714 710 706 705 707 705 703 703 707 714 714 720 730 740 751 762 771 779 789 797 806 814 821 828 835
842 837 829 824 818 812 807 803 798 791 783 776 768 761 753 745 736 728 720 714 711 708 705 707 709 706 708 711 707 713 725 737 749 762 772 780 789 797 804 812 819 826 833
845 840 833 828 822 817 811 807 802 796 788 780 773 766 760 753 745 737 730 723 719 714 713 711 715 712 713 716 712 715 727 738 749 762 773 779 788 796 803 811 818 825 832
849 845 838 831 827 822 817 811 806 801 793 786 779 772 767 761 754 747 738 732 726 724 722 721 720 718 718 721 722 722 727 736 750 761 770 778 787 795 804 811 817 824 830
853 848 842 836 832 828 824 818 812 806 800 792 787 780 774 767 761 755 749 743 739 732 731 731 732 734 736 737 728 723 729 740 754 760 769 778 786 794 800 808 814 822 828
856 851 846 841 837 835 830 824 818 813 808 802 796 789 783 776 770 764 759 753 748 745 746 746 747 742 745 737 733 730 736 743 754 761 769 779 786 793 799 806 812 819 825
860 855 852 847 843 840 836 830 824 818 815 811 806 800 793 787 780 774 768 764 760 757 755 755 755 755 746 741 738 742 746 752 760 764 771 778 785 792 798 804 810 816 821
864 860 856 853 848 844 841 837 830 823 819 816 813 809 801 795 790 783 777 774 771 769 767 765 762 756 749 747 749 750 753 757 763 772 775 778 784 789 798 804 808 813 818
869 865 860 857 854 849 847 842 837 832 826 823 820 817 813 807 799 792 786 784 778 781 776 770 763 759 758 759 758 759 763 766 770 774 780 781 784 785 794 803 802 807 812